SKA58WC EGKK-LFRS

Flight info

Callsign SKA58WC
Flight time 0h 54m
Altitude 27000
Route NOVMA L620 SAM M195 MARUK/N0451F290 N621 LELNA DCT DOMOK UT260 UPALO UN862 GODAN
Aircraft A321/M-SDE3FGHIRWY/LB1

Departure

Time 2026-04-18 09:34
Airport London Gatwick Airport (EGKK)

Arrival

Time 2026-04-18 10:28
Airport Nantes Atlantique Airport (LFRS)
Time Latitude Longitude Altitude Speed Heading
2026-04-18 09:03 51.15805 -0.17747 204 ft 0 kts 347°
2026-04-18 09:24 51.15775 -0.17737 206 ft 4 kts 347°
2026-04-18 09:24 51.15758 -0.17731 214 ft 4 kts 358°
2026-04-18 09:24 51.15735 -0.17740 209 ft 4 kts 48°
2026-04-18 09:25 51.15725 -0.17768 208 ft 2 kts 77°
2026-04-18 09:25 51.15720 -0.17808 213 ft 4 kts 77°
2026-04-18 09:25 51.15716 -0.17835 211 ft 0 kts 77°
2026-04-18 09:27 51.15717 -0.17831 212 ft 3 kts 77°
2026-04-18 09:27 51.15726 -0.17759 210 ft 10 kts 78°
2026-04-18 09:28 51.15743 -0.17639 209 ft 11 kts 77°
2026-04-18 09:28 51.15751 -0.17533 208 ft 9 kts 103°
2026-04-18 09:28 51.15709 -0.17493 208 ft 7 kts 168°
2026-04-18 09:28 51.15642 -0.17472 210 ft 13 kts 168°
2026-04-18 09:29 51.15542 -0.17438 204 ft 15 kts 167°
2026-04-18 09:29 51.15420 -0.17393 208 ft 22 kts 167°
2026-04-18 09:29 51.15295 -0.17352 210 ft 13 kts 169°
2026-04-18 09:29 51.15242 -0.17289 207 ft 0 kts 107°
2026-04-18 09:30 51.15242 -0.17288 207 ft 0 kts 107°
2026-04-18 09:30 51.15241 -0.17246 206 ft 6 kts 76°
2026-04-18 09:30 51.15252 -0.17187 210 ft 6 kts 75°
2026-04-18 09:31 51.15268 -0.17080 208 ft 13 kts 78°
2026-04-18 09:31 51.15289 -0.16923 216 ft 13 kts 78°
2026-04-18 09:31 51.15264 -0.16820 214 ft 10 kts 161°
2026-04-18 09:31 51.15199 -0.16798 204 ft 9 kts 167°
2026-04-18 09:32 51.15129 -0.16794 211 ft 11 kts 218°
2026-04-18 09:32 51.15112 -0.16868 212 ft 0 kts 258°
2026-04-18 09:33 51.15106 -0.16921 204 ft 23 kts 259°
2026-04-18 09:33 51.15020 -0.17566 207 ft 93 kts 256°
2026-04-18 09:33 51.14837 -0.18876 210 ft 148 kts 257°
2026-04-18 09:34 51.14597 -0.20591 619 ft 159 kts 259°
2026-04-18 09:34 51.14354 -0.22282 1421 ft 156 kts 260°
2026-04-18 09:34 51.14102 -0.23967 2044 ft 161 kts 259°
2026-04-18 09:34 51.13841 -0.25813 2322 ft 180 kts 260°
2026-04-18 09:35 51.13555 -0.27834 2541 ft 198 kts 260°
2026-04-18 09:35 51.13254 -0.30078 2690 ft 220 kts 260°
2026-04-18 09:35 51.12929 -0.32534 3109 ft 231 kts 259°
2026-04-18 09:35 51.12592 -0.35058 3477 ft 246 kts 259°
2026-04-18 09:36 51.12239 -0.37627 3890 ft 253 kts 257°
2026-04-18 09:36 51.11826 -0.40334 4343 ft 253 kts 258°
2026-04-18 09:36 51.11418 -0.42925 5146 ft 253 kts 252°
2026-04-18 09:36 51.10683 -0.45517 5924 ft 256 kts 246°
2026-04-18 09:37 51.09919 -0.48033 6680 ft 256 kts 245°
2026-04-18 09:37 51.09182 -0.50388 7331 ft 257 kts 244°
2026-04-18 09:37 51.08365 -0.52975 8058 ft 258 kts 244°
2026-04-18 09:37 51.07564 -0.55528 8746 ft 260 kts 244°
2026-04-18 09:38 51.06763 -0.58098 9452 ft 261 kts 244°
2026-04-18 09:38 51.05956 -0.60688 10143 ft 263 kts 244°
2026-04-18 09:38 51.05272 -0.63377 10764 ft 265 kts 255°
2026-04-18 09:38 51.04883 -0.66224 11397 ft 265 kts 257°
2026-04-18 09:39 51.04503 -0.69090 12046 ft 266 kts 257°
2026-04-18 09:39 51.04121 -0.71956 12701 ft 267 kts 257°
2026-04-18 09:39 51.03733 -0.74843 13354 ft 268 kts 256°
2026-04-18 09:39 51.03337 -0.77776 13695 ft 280 kts 256°
2026-04-18 09:40 51.02918 -0.80882 13823 ft 297 kts 257°
2026-04-18 09:40 51.02471 -0.84168 13980 ft 313 kts 256°
2026-04-18 09:40 51.01998 -0.87616 14103 ft 328 kts 256°
2026-04-18 09:40 51.01505 -0.91216 14230 ft 342 kts 257°
2026-04-18 09:41 51.00995 -0.94955 14450 ft 351 kts 257°
2026-04-18 09:41 51.00509 -0.98530 14814 ft 354 kts 257°
2026-04-18 09:41 50.99992 -1.02353 15245 ft 356 kts 257°
2026-04-18 09:41 50.99471 -1.06184 15643 ft 358 kts 257°
2026-04-18 09:42 50.98972 -1.09837 16028 ft 359 kts 257°
2026-04-18 09:42 50.98470 -1.13474 16403 ft 361 kts 256°
2026-04-18 09:42 50.97927 -1.17358 16799 ft 362 kts 256°
2026-04-18 09:42 50.97380 -1.21250 17183 ft 364 kts 256°
2026-04-18 09:43 50.96832 -1.25167 17565 ft 365 kts 256°
2026-04-18 09:43 50.96194 -1.29044 17941 ft 367 kts 250°
2026-04-18 09:43 50.95109 -1.32693 18321 ft 369 kts 239°
2026-04-18 09:43 50.93560 -1.35923 18682 ft 373 kts 229°
2026-04-18 09:44 50.91580 -1.38606 19039 ft 379 kts 218°
2026-04-18 09:44 50.89384 -1.40886 19400 ft 381 kts 217°
2026-04-18 09:44 50.87167 -1.43188 19759 ft 382 kts 217°
2026-04-18 09:44 50.84978 -1.45469 20063 ft 384 kts 217°
2026-04-18 09:45 50.82859 -1.47678 20401 ft 386 kts 217°
2026-04-18 09:45 50.80649 -1.49970 20753 ft 388 kts 217°
2026-04-18 09:45 50.78388 -1.52304 21110 ft 390 kts 217°
2026-04-18 09:45 50.76125 -1.54640 21464 ft 391 kts 217°
2026-04-18 09:46 50.73846 -1.56999 21820 ft 393 kts 217°
2026-04-18 09:46 50.71569 -1.59360 22157 ft 395 kts 217°
2026-04-18 09:46 50.69272 -1.61735 22495 ft 397 kts 217°
2026-04-18 09:46 50.66970 -1.64110 22834 ft 398 kts 217°
2026-04-18 09:47 50.64656 -1.66496 23168 ft 400 kts 217°
2026-04-18 09:47 50.62331 -1.68889 23439 ft 402 kts 217°
2026-04-18 09:47 50.59983 -1.71298 23730 ft 405 kts 217°
2026-04-18 09:47 50.57617 -1.73716 24016 ft 407 kts 217°
2026-04-18 09:48 50.55243 -1.76143 24292 ft 408 kts 217°
2026-04-18 09:48 50.52868 -1.78576 24565 ft 410 kts 217°
2026-04-18 09:48 50.50485 -1.81016 24847 ft 411 kts 217°
2026-04-18 09:48 50.48095 -1.83461 25121 ft 412 kts 217°
2026-04-18 09:49 50.45828 -1.85771 25382 ft 414 kts 217°
2026-04-18 09:49 50.43417 -1.88221 25610 ft 415 kts 217°
2026-04-18 09:49 50.40991 -1.90686 25850 ft 416 kts 217°
2026-04-18 09:49 50.38564 -1.93153 26044 ft 418 kts 217°
2026-04-18 09:50 50.36255 -1.95490 26245 ft 419 kts 217°
2026-04-18 09:50 50.33811 -1.97957 26455 ft 421 kts 217°
2026-04-18 09:50 50.31355 -2.00431 26654 ft 422 kts 217°
2026-04-18 09:50 50.29039 -2.02764 26846 ft 422 kts 217°
2026-04-18 09:51 50.26539 -2.05067 27023 ft 427 kts 211°
2026-04-18 09:51 50.23887 -2.06718 27265 ft 432 kts 202°
2026-04-18 09:51 50.20940 -2.07712 27525 ft 438 kts 193°
2026-04-18 09:51 50.17901 -2.08128 27759 ft 440 kts 191°
2026-04-18 09:52 50.14860 -2.08501 28027 ft 437 kts 191°
2026-04-18 09:52 50.11987 -2.08852 28340 ft 435 kts 191°
2026-04-18 09:52 50.08997 -2.09228 28638 ft 433 kts 192°
2026-04-18 09:52 50.06011 -2.09611 28906 ft 431 kts 192°
2026-04-18 09:53 50.03029 -2.10000 29162 ft 430 kts 192°
2026-04-18 09:53 50.00063 -2.10394 29287 ft 427 kts 192°
2026-04-18 09:53 49.94191 -2.10872 29263 ft 424 kts 188°
2026-04-18 09:54 49.88313 -2.10759 29301 ft 422 kts 187°
2026-04-18 09:54 49.82441 -2.10557 29302 ft 421 kts 187°
2026-04-18 09:55 49.76579 -2.10479 29301 ft 421 kts 188°
2026-04-18 09:55 49.70694 -2.09705 29276 ft 435 kts 175°
2026-04-18 09:56 49.64880 -2.07185 29285 ft 437 kts 173°
2026-04-18 09:56 49.59033 -2.04606 29293 ft 437 kts 173°
2026-04-18 09:57 49.53188 -2.02033 29298 ft 436 kts 173°
2026-04-18 09:57 49.47352 -1.99485 29285 ft 436 kts 172°
2026-04-18 09:58 49.41525 -1.96939 29302 ft 435 kts 172°
2026-04-18 09:58 49.35697 -1.94397 29295 ft 435 kts 172°
2026-04-18 09:59 49.29877 -1.91867 29293 ft 435 kts 172°
2026-04-18 10:00 49.21144 -1.88100 29279 ft 435 kts 172°
2026-04-18 10:00 49.15317 -1.85584 29279 ft 435 kts 172°
2026-04-18 10:01 49.09481 -1.83076 29284 ft 436 kts 172°
2026-04-18 10:01 49.03632 -1.80581 29289 ft 439 kts 172°
2026-04-18 10:02 48.97773 -1.78084 29288 ft 441 kts 172°
2026-04-18 10:02 48.91858 -1.75672 29289 ft 436 kts 177°
2026-04-18 10:03 48.85914 -1.75108 29285 ft 426 kts 187°
2026-04-18 10:03 48.79992 -1.75044 29283 ft 426 kts 186°
2026-04-18 10:04 48.74061 -1.74969 29284 ft 426 kts 186°
2026-04-18 10:04 48.68141 -1.74899 29282 ft 426 kts 187°
2026-04-18 10:05 48.62212 -1.74841 29252 ft 426 kts 187°
2026-04-18 10:05 48.56280 -1.74761 29268 ft 427 kts 186°
2026-04-18 10:05 48.53319 -1.74719 28840 ft 424 kts 186°
2026-04-18 10:06 48.50358 -1.74682 27834 ft 427 kts 186°
2026-04-18 10:06 48.47369 -1.74652 26804 ft 431 kts 186°
2026-04-18 10:06 48.44398 -1.74624 25829 ft 435 kts 186°
2026-04-18 10:06 48.41361 -1.74589 24799 ft 438 kts 185°
2026-04-18 10:07 48.38261 -1.74545 24012 ft 437 kts 185°
2026-04-18 10:07 48.35299 -1.74497 23573 ft 427 kts 185°
2026-04-18 10:07 48.32367 -1.74453 23082 ft 417 kts 185°
2026-04-18 10:07 48.29499 -1.74407 22592 ft 408 kts 185°
2026-04-18 10:08 48.26696 -1.74364 22116 ft 399 kts 185°
2026-04-18 10:08 48.23950 -1.74331 21650 ft 390 kts 185°
2026-04-18 10:08 48.21271 -1.74303 21185 ft 381 kts 185°
2026-04-18 10:08 48.18647 -1.74274 20712 ft 373 kts 185°
2026-04-18 10:09 48.16076 -1.74245 20266 ft 367 kts 185°
2026-04-18 10:09 48.13546 -1.74219 19824 ft 361 kts 185°
2026-04-18 10:09 48.11053 -1.74193 19389 ft 356 kts 185°
2026-04-18 10:09 48.08598 -1.74205 18960 ft 349 kts 188°
2026-04-18 10:10 48.06224 -1.74676 18532 ft 340 kts 198°
2026-04-18 10:10 48.03983 -1.75667 18043 ft 333 kts 204°
2026-04-18 10:10 48.01809 -1.76800 17624 ft 329 kts 204°
2026-04-18 10:10 47.99665 -1.77905 17213 ft 323 kts 204°
2026-04-18 10:11 47.97550 -1.78987 16817 ft 319 kts 203°
2026-04-18 10:11 47.95464 -1.80049 16433 ft 315 kts 203°
2026-04-18 10:11 47.93402 -1.81099 16057 ft 311 kts 203°
2026-04-18 10:11 47.91371 -1.82137 15676 ft 307 kts 203°
2026-04-18 10:12 47.89368 -1.83164 15299 ft 303 kts 203°
2026-04-18 10:12 47.87388 -1.84179 14933 ft 299 kts 203°
2026-04-18 10:12 47.85434 -1.85176 14562 ft 295 kts 203°
2026-04-18 10:12 47.83501 -1.86158 14208 ft 292 kts 203°
2026-04-18 10:13 47.81589 -1.87130 13822 ft 289 kts 203°
2026-04-18 10:13 47.79689 -1.88100 13410 ft 288 kts 203°
2026-04-18 10:13 47.77800 -1.89065 12998 ft 286 kts 203°
2026-04-18 10:13 47.75924 -1.90023 12608 ft 284 kts 203°
2026-04-18 10:14 47.74060 -1.90973 12221 ft 282 kts 203°
2026-04-18 10:14 47.72832 -1.91599 11974 ft 282 kts 203°
2026-04-18 10:14 47.70384 -1.92845 11471 ft 280 kts 202°
2026-04-18 10:14 47.68545 -1.93779 11098 ft 279 kts 202°
2026-04-18 10:15 47.66688 -1.94604 10736 ft 280 kts 195°
2026-04-18 10:15 47.64745 -1.94887 10374 ft 282 kts 183°
2026-04-18 10:15 47.63417 -1.94730 10129 ft 285 kts 175°
2026-04-18 10:15 47.61494 -1.93976 9730 ft 288 kts 162°
2026-04-18 10:16 47.59680 -1.92715 9335 ft 288 kts 157°
2026-04-18 10:16 47.57887 -1.91400 8937 ft 287 kts 157°
2026-04-18 10:16 47.56100 -1.90098 8552 ft 285 kts 157°
2026-04-18 10:16 47.54324 -1.88808 8174 ft 283 kts 156°
2026-04-18 10:17 47.52556 -1.87531 7801 ft 282 kts 159°
2026-04-18 10:17 47.50700 -1.86826 7498 ft 273 kts 180°
2026-04-18 10:17 47.48820 -1.86786 7355 ft 275 kts 182°
2026-04-18 10:17 47.46907 -1.86762 7209 ft 275 kts 182°
2026-04-18 10:18 47.44990 -1.86734 7058 ft 275 kts 182°
2026-04-18 10:18 47.43078 -1.86712 6912 ft 275 kts 181°
2026-04-18 10:18 47.41167 -1.86699 6765 ft 275 kts 183°
2026-04-18 10:18 47.39258 -1.86691 6615 ft 274 kts 182°
2026-04-18 10:19 47.37350 -1.86679 6460 ft 274 kts 181°
2026-04-18 10:19 47.35443 -1.86661 6300 ft 274 kts 182°
2026-04-18 10:19 47.33539 -1.86648 6145 ft 274 kts 181°
2026-04-18 10:19 47.31636 -1.86641 5990 ft 273 kts 181°
2026-04-18 10:20 47.29731 -1.86629 5837 ft 274 kts 181°
2026-04-18 10:20 47.27826 -1.86614 5690 ft 273 kts 180°
2026-04-18 10:20 47.25922 -1.86600 5528 ft 274 kts 181°
2026-04-18 10:20 47.24016 -1.86591 5379 ft 274 kts 181°
2026-04-18 10:21 47.22101 -1.86585 5229 ft 275 kts 180°
2026-04-18 10:21 47.20196 -1.86592 5081 ft 275 kts 181°
2026-04-18 10:21 47.18281 -1.86605 4927 ft 276 kts 181°
2026-04-18 10:21 47.16357 -1.86630 4764 ft 277 kts 181°
2026-04-18 10:22 47.14447 -1.86650 4625 ft 273 kts 181°
2026-04-18 10:22 47.12542 -1.86665 4459 ft 274 kts 181°
2026-04-18 10:22 47.10640 -1.86683 4304 ft 272 kts 181°
2026-04-18 10:22 47.08745 -1.86700 4151 ft 270 kts 179°
2026-04-18 10:23 47.06951 -1.86171 3996 ft 259 kts 156°
2026-04-18 10:23 47.05471 -1.84813 3855 ft 246 kts 136°
2026-04-18 10:23 47.04401 -1.82975 3701 ft 230 kts 119°
2026-04-18 10:23 47.03706 -1.80938 3544 ft 218 kts 112°
2026-04-18 10:24 47.03060 -1.78982 3383 ft 208 kts 112°
2026-04-18 10:24 47.02438 -1.77137 3241 ft 194 kts 111°
2026-04-18 10:24 47.02047 -1.75173 2969 ft 213 kts 92°
2026-04-18 10:24 47.02189 -1.73008 2769 ft 215 kts 70°
2026-04-18 10:25 47.02833 -1.71163 2561 ft 190 kts 50°
2026-04-18 10:25 47.03704 -1.69945 2399 ft 166 kts 31°
2026-04-18 10:25 47.04664 -1.69167 2191 ft 150 kts 25°
2026-04-18 10:25 47.05579 -1.68472 2006 ft 146 kts 24°
2026-04-18 10:26 47.06474 -1.67792 1797 ft 143 kts 25°
2026-04-18 10:26 47.07354 -1.67133 1616 ft 142 kts 25°
2026-04-18 10:26 47.08234 -1.66459 1426 ft 143 kts 25°
2026-04-18 10:26 47.09104 -1.65812 1245 ft 142 kts 24°
2026-04-18 10:27 47.09980 -1.65147 1046 ft 142 kts 26°
2026-04-18 10:27 47.10847 -1.64482 864 ft 140 kts 26°
2026-04-18 10:27 47.11718 -1.63821 685 ft 141 kts 26°
2026-04-18 10:27 47.12588 -1.63155 482 ft 142 kts 25°
2026-04-18 10:28 47.13466 -1.62483 301 ft 141 kts 25°
2026-04-18 10:28 47.14341 -1.61815 94 ft 141 kts 26°
2026-04-18 10:28 47.15109 -1.61237 86 ft 100 kts 28°
2026-04-18 10:28 47.15543 -1.60901 90 ft 38 kts 28°
2026-04-18 10:29 47.15667 -1.60792 88 ft 12 kts 53°
2026-04-18 10:29 47.15657 -1.60689 87 ft 9 kts 120°
2026-04-18 10:29 47.15631 -1.60631 89 ft 4 kts 125°
2026-04-18 10:29 47.15622 -1.60612 90 ft 1 kts 126°
2026-04-18 10:30 47.15606 -1.60581 91 ft 7 kts 126°
2026-04-18 10:30 47.15570 -1.60509 93 ft 9 kts 126°
2026-04-18 10:30 47.15542 -1.60449 94 ft 6 kts 125°
2026-04-18 10:30 47.15524 -1.60403 92 ft 6 kts 109°
2026-04-18 10:31 47.15537 -1.60310 90 ft 12 kts 52°
2026-04-18 10:31 47.15575 -1.60275 91 ft 0 kts 19°
2026-04-18 10:31 47.15576 -1.60275 91 ft 1 kts 19°
2026-04-18 10:31 47.15597 -1.60243 90 ft 5 kts 73°
2026-04-18 10:32 47.15584 -1.60196 92 ft 5 kts 119°
2026-04-18 10:32 47.15573 -1.60148 92 ft 4 kts 78°
2026-04-18 10:32 47.15610 -1.60118 90 ft 8 kts 19°
2026-04-18 10:32 47.15634 -1.60106 90 ft 2 kts 19°
2026-04-18 10:33 47.15636 -1.60105 90 ft 0 kts 19°